Orbital Elements at Epoch 2459200.5 (2020-Dec-17.0) TDB
Reference: JPL 14 (heliocentric ecliptic J2000)
Element | Value | Uncertainty (1-sigma) | Units |
e | .1754347073074373 | 4.4433e-08 | |
a | 2.383710659015007 | 1.1627e-08 | au |
q | 1.965525077245091 | 1.0649e-07 | au |
i | 5.977565579601474 | 6.005e-06 | deg |
node | 146.3431971717345 | 3.9699e-05 | deg |
peri | 235.9368740844147 | 4.2797e-05 | deg |
M | 181.3977052631307 | 1.805e-05 | deg |
tp | 2459867.403917211828 (2022-Oct-14.90391721) | 6.9971e-05 | TDB |
period | 1344.245943480012 3.68 | 9.8352e-06 2.693e-08 | d yr |
n | .267808135666026 | 1.9594e-09 | deg/d |
Q | 2.801896240784923 | 1.3667e-08 | au |
|
| | Orbit Determination Parameters
Additional Information
|